Date String (YYYY-MM-DD hh:mm:ss) UTC,Instrument flags,Ambient pressure (hPa),Sample flow (lpm),Bypass flow (lpm),Sample temperature (°C),Ambient temperature (°C),ASC tube jacket temperature (°C),LED temperature (°C),Box temperature (°C),Sample RH (%),Span deviation,Mass concentration (μg/m³),Mass concentration (μg/m³),Mass concentration (μg/m³)
DateTimeUTC,F1_M11,P_M11,Q1_M11,Q2_M11,T1_M11,T2_M11,T3_M11,T4_M11,T5_M11,U1_M11,ZSPAN_M11,X0_M11,X2_M11,X1_M11
2021-12-23 10:00:00,,0819.9,5.01,0.00,25.2,24.5,00.0,34.2,26.9,07.1,0000.0,0001.98,0000.62,0000.39
2021-12-23 10:01:00,,0819.9,4.99,0.00,25.2,24.5,00.0,34.2,27.0,07.0,0000.0,0001.86,0000.61,0000.38
2021-12-23 10:02:00,,0819.6,4.99,0.00,25.2,24.6,00.0,34.2,27.0,07.0,0000.0,0001.36,0000.60,0000.38
2021-12-23 10:03:00,,0819.7,5.02,0.00,25.2,24.5,00.0,34.2,27.0,07.2,0000.0,0000.97,0000.61,0000.38
2021-12-23 10:04:00,,0819.9,4.98,0.00,25.2,24.5,00.0,34.2,27.0,07.5,0000.0,0001.06,0000.61,0000.37
2021-12-23 10:05:00,,0819.9,5.01,0.00,25.3,24.5,00.0,34.2,27.0,07.1,0000.0,0001.08,0000.62,0000.37
2021-12-23 10:06:00,,0820.0,4.99,0.00,25.3,24.6,00.0,34.2,27.0,07.1,0000.0,0001.00,0000.57,0000.36
2021-12-23 10:07:00,,0819.9,5.02,0.00,25.3,24.6,00.0,34.2,27.0,07.1,0000.0,0001.08,0000.57,0000.36
2021-12-23 10:08:00,,0819.9,4.99,0.00,25.3,24.6,00.0,34.2,27.1,07.0,0000.0,0001.08,0000.57,0000.36
2021-12-23 10:09:00,,0819.9,5.01,0.00,25.3,24.6,00.0,34.2,27.1,07.0,0000.0,0001.02,0000.56,0000.38
2021-12-23 10:10:00,,0819.9,5.01,0.00,25.3,24.6,00.0,34.2,27.1,07.0,0000.0,0001.06,0000.57,0000.38
2021-12-23 10:11:00,,0820.0,4.99,0.00,25.3,24.6,00.0,34.2,27.1,07.1,0000.0,0001.11,0000.58,0000.38
2021-12-23 10:12:00,,0820.0,4.99,0.00,25.3,24.6,00.0,34.2,27.1,07.1,0000.0,0001.20,0000.59,0000.38
2021-12-23 10:13:00,,0819.8,5.01,0.00,25.3,24.6,00.0,34.3,27.1,07.2,0000.0,0001.15,0000.57,0000.37
2021-12-23 10:14:00,,0819.8,4.99,0.00,25.3,24.7,00.0,34.3,27.1,07.4,0000.0,0001.15,0000.57,0000.36
2021-12-23 10:15:00,,0819.8,5.00,0.00,25.4,24.7,00.0,34.3,27.1,07.6,0000.0,0001.03,0000.56,0000.36
2021-12-23 10:16:00,,0819.8,4.99,0.00,25.4,24.7,00.0,34.3,27.1,07.7,0000.0,0000.96,0000.53,0000.36
2021-12-23 10:17:00,,0819.7,5.02,0.00,25.4,24.7,00.0,34.3,27.1,07.8,0000.0,0000.95,0000.52,0000.35
2021-12-23 10:18:00,,0819.6,5.01,0.00,25.4,24.7,00.0,34.3,27.1,07.8,0000.0,0000.89,0000.51,0000.34
2021-12-23 10:19:00,,0819.6,4.98,0.00,25.4,24.7,00.0,34.3,27.1,07.8,0000.0,0000.83,0000.47,0000.32
2021-12-23 10:20:00,,0819.7,5.01,0.00,25.4,24.7,00.0,34.3,27.1,07.9,0000.0,0000.76,0000.43,0000.30
2021-12-23 10:21:00,,0819.6,4.98,0.00,25.4,24.7,00.0,34.3,27.2,08.0,0000.0,0000.68,0000.40,0000.28
2021-12-23 10:22:00,,0819.8,5.00,0.00,25.4,24.7,00.0,34.3,27.1,07.9,0000.0,0000.62,0000.37,0000.27
2021-12-23 10:23:00,,0819.7,5.00,0.00,25.4,24.7,00.0,34.3,27.1,07.7,0000.0,0000.55,0000.35,0000.26
2021-12-23 10:24:00,,0819.6,5.00,0.00,25.4,24.7,00.0,34.3,27.1,07.8,0000.0,0000.51,0000.33,0000.26
2021-12-23 10:25:00,,0819.7,5.01,0.00,25.4,24.7,00.0,34.3,27.2,07.8,0000.0,0000.50,0000.32,0000.25
2021-12-23 10:26:00,,0819.7,4.99,0.00,25.4,24.7,00.0,34.3,27.2,07.8,0000.0,0000.49,0000.31,0000.25
2021-12-23 10:27:00,,0819.9,5.00,0.00,25.4,24.7,00.0,34.4,27.2,07.8,0000.0,0000.50,0000.32,0000.25
2021-12-23 10:28:00,,0819.7,5.00,0.00,25.4,24.7,00.0,34.4,27.2,07.6,0000.0,0000.51,0000.32,0000.24
2021-12-23 10:29:00,,0819.8,4.99,0.00,25.4,24.7,00.0,34.4,27.2,07.5,0000.0,0000.56,0000.31,0000.24
2021-12-23 10:30:00,,0819.6,5.01,0.00,25.5,24.8,00.0,34.4,27.2,07.7,0000.0,0000.59,0000.33,0000.25
2021-12-23 10:31:00,,0819.6,4.99,0.00,25.4,24.8,00.0,34.4,27.2,07.8,0000.0,0000.62,0000.35,0000.26
2021-12-23 10:32:00,,0819.7,5.01,0.00,25.4,24.8,00.0,34.4,27.2,07.5,0000.0,0000.74,0000.36,0000.26
2021-12-23 10:33:00,,0819.7,4.99,0.00,25.4,24.7,00.0,34.4,27.2,07.6,0000.0,0000.72,0000.36,0000.26
2021-12-23 10:34:00,,0819.8,5.01,0.00,25.4,24.7,00.0,34.4,27.2,07.6,0000.0,0000.70,0000.35,0000.27
2021-12-23 10:35:00,,0819.7,5.00,0.00,25.4,24.7,00.0,34.4,27.2,07.4,0000.0,0000.81,0000.40,0000.27
2021-12-23 10:36:00,,0819.7,4.99,0.00,25.4,24.7,00.0,34.4,27.2,07.5,0000.0,0000.94,0000.44,0000.28
2021-12-23 10:37:00,,0819.7,5.01,0.00,25.4,24.7,00.0,34.4,27.2,07.6,0000.0,0001.06,0000.48,0000.28
2021-12-23 10:38:00,,0819.7,4.99,0.00,25.4,24.7,00.0,34.4,27.2,07.5,0000.0,0001.06,0000.49,0000.29
2021-12-23 10:39:00,,0819.6,5.01,0.00,25.4,24.7,00.0,34.4,27.2,07.4,0000.0,0001.07,0000.49,0000.30
2021-12-23 10:40:00,,0819.7,5.01,0.00,25.4,24.7,00.0,34.4,27.2,07.3,0000.0,0001.01,0000.50,0000.30
2021-12-23 10:41:00,,0819.6,4.99,0.00,25.4,24.7,00.0,34.4,27.2,07.4,0000.0,0000.98,0000.50,0000.31
2021-12-23 10:42:00,,0819.5,5.01,0.00,25.4,24.7,00.0,34.4,27.2,07.4,0000.0,0001.10,0000.50,0000.31
2021-12-23 10:43:00,,0819.6,4.99,0.00,25.4,24.7,00.0,34.4,27.2,07.5,0000.0,0001.64,0000.51,0000.31
2021-12-23 10:44:00,,0819.6,5.01,0.00,25.4,24.7,00.0,34.4,27.2,07.5,0000.0,0001.65,0000.53,0000.32
2021-12-23 10:45:00,,0819.5,5.00,0.00,25.4,24.7,00.0,34.4,27.2,07.6,0000.0,0001.73,0000.56,0000.32
2021-12-23 10:46:00,,0819.5,5.01,0.00,25.4,24.7,00.0,34.4,27.2,07.6,0000.0,0001.71,0000.52,0000.32
2021-12-23 10:47:00,,0819.6,4.99,0.00,25.4,24.7,00.0,34.4,27.2,07.5,0000.0,0001.55,0000.48,0000.32
2021-12-23 10:48:00,,0819.5,5.00,0.00,25.5,24.7,00.0,34.4,27.2,07.5,0000.0,0001.46,0000.46,0000.33
2021-12-23 10:49:00,,0819.5,5.01,0.00,25.5,24.8,00.0,34.4,27.2,07.5,0000.0,0001.44,0000.45,0000.33
2021-12-23 10:50:00,,0819.6,4.99,0.00,25.5,24.8,00.0,34.4,27.3,07.4,0000.0,0001.55,0000.45,0000.33
2021-12-23 10:51:00,,0819.8,4.99,0.00,25.5,24.8,00.0,34.4,27.3,07.4,0000.0,0002.47,0000.47,0000.33
2021-12-23 10:52:00,,0819.7,5.00,0.00,25.5,24.8,00.0,34.4,27.3,07.5,0000.0,0002.84,0000.48,0000.33
2021-12-23 10:53:00,,0819.6,5.00,0.00,25.5,24.8,00.0,34.4,27.2,07.5,0000.0,0002.72,0000.50,0000.32
2021-12-23 10:54:00,,0819.4,4.98,0.00,25.5,24.8,00.0,34.4,27.3,07.6,0000.0,0002.15,0000.50,0000.33
2021-12-23 10:55:00,,0819.5,5.01,0.00,25.5,24.8,00.0,34.4,27.2,07.5,0000.0,0002.18,0000.51,0000.32
2021-12-23 10:56:00,,0819.4,4.99,0.00,25.5,24.8,00.0,34.4,27.3,07.6,0000.0,0002.13,0000.48,0000.32
2021-12-23 10:57:00,,0819.3,5.01,0.00,25.5,24.8,00.0,34.4,27.3,07.5,0000.0,0002.08,0000.49,0000.33
2021-12-23 10:58:00,,0819.4,5.01,0.00,25.5,24.8,00.0,34.4,27.3,07.5,0000.0,0002.13,0000.50,0000.33
2021-12-23 10:59:00,,0819.4,4.98,0.00,25.5,24.8,00.0,34.4,27.3,07.5,0000.0,0002.23,0000.51,0000.32
